Location: Huberhof
(49.2050°N, 7.4980°E)
Time: 05:25:47
(UTC+00:00)

CZ-4C R/B - Pass Details

Date: 29 October 2020
Orbit: 624 x 1378 km, 63.4° (Epoch: 25 November)

Event Time Altitude Azimuth Distance (km) Brightness Sun altitude
Rises 20:27:48 0° 316° (NW) 3,823 6.4 -41.0°
Reaches altitude 10° 20:30:19 10° 313° (NW) 2,968 5.7 -41.4°
Enters shadow 20:34:49 41° 292° (WNW) 1,679 3.9 -42.0°
